Gastonia, NC

1:03 AM EST on January 18, 2020 (GMT -0500)
Gastonia Municipal

Weather History for KAKH - November, 2019

Change the Weather History Date:

Friday, November 1, 2019

  Actual Average (KCLT) Record (KCLT)
Temperature  
Mean Temperature 50 °F -  
Max Temperature 62 °F 69 °F 84 °F (1950)
Min Temperature 39 °F 48 °F 29 °F (1954)
Degree Days  
Heating Degree Days 16    
Moisture  
Dew Point 32 °F    
Average Humidity 57    
Maximum Humidity 82    
Minimum Humidity 35    
Precipitation  
Precipitation 0.00 in - - ()
Sea Level Pressure  
Sea Level Pressure 30.21 in    
Wind  
Wind Speed 3 mph ()    
Max Wind Speed 13 mph    
Max Gust Speed -    
Visibility 10.0 miles    
Events      
Averages and records for this station are not official NWS values.
T = Trace of Precipitation, MM = Missing Value Source: Averaged Metar Reports

Daily Weather History Graph

Daily Weather History Graph

Search for Another Location

Airport or City:

Astronomy

Nov. 01, 2019 Rise Set
Actual Time 7:45 AM EDT 6:30 PM EDT
Civil Twilight 7:19 AM EDT 6:56 PM EDT
Nautical Twilight 6:49 AM EDT 7:26 PM EDT
Astronomical Twilight 6:19 AM EDT 7:55 PM EDT
Moon 12:24 PM EDT (11/1) 10:25 PM EDT (11/1)
Length of Visible Light 11h 36m
Length of Day
10h 44m
Waxing Crescent, 24% of the Moon is Illuminated
Nov 1
Waxing Crescent
Nov 4
First Quarter
Nov 12
Full
Nov 19
Last Quarter
Nov 26
New

Hourly Weather History & Observations

Time (EDT) Temp. Windchill Dew Point Humidity Pressure Visibility Wind Dir Wind Speed Gust Speed Precip Events Conditions
12:54 AM 48.0 °F - 33.1 °F 56% 30.05 in 10.0 mi Variable 3.5 mph - N/A   Clear
1:54 AM 46.9 °F - 30.9 °F 54% 30.07 in 10.0 mi Variable 5.8 mph - N/A   Clear
2:54 AM 45.0 °F 42.6 °F 32.0 °F 60% 30.11 in 10.0 mi Variable 4.6 mph - N/A   Clear
3:54 AM 43.0 °F 40.3 °F 28.9 °F 58% 30.13 in 10.0 mi NNW 4.6 mph - N/A   Clear
4:54 AM 41.0 °F 38.0 °F 28.9 °F 62% 30.16 in 10.0 mi North 4.6 mph - N/A   Clear
5:54 AM 39.9 °F - 28.9 °F 65% 30.18 in 10.0 mi Calm Calm - N/A   Clear
6:54 AM 39.9 °F 36.7 °F 28.9 °F 65% 30.20 in 10.0 mi NNE 4.6 mph - N/A   Clear
7:54 AM 39.0 °F 35.7 °F 28.9 °F 67% 30.22 in 10.0 mi Variable 4.6 mph - N/A   Clear
8:54 AM 43.0 °F 38.2 °F 28.9 °F 58% 30.25 in 10.0 mi North 8.1 mph - N/A   Clear
9:54 AM 46.9 °F - 28.9 °F 50% 30.26 in 10.0 mi North 12.7 mph - N/A   Clear
11:54 AM 53.1 °F - 28.9 °F 40% 30.29 in 10.0 mi North 10.4 mph - N/A   Clear
12:54 PM 55.0 °F - 30.0 °F 38% 30.27 in 10.0 mi NNE 8.1 mph - N/A   Clear
1:54 PM 57.0 °F - 30.9 °F 37% 30.25 in 10.0 mi Calm Calm - N/A   Clear
2:54 PM 59.0 °F - 32.0 °F 36% 30.23 in 10.0 mi Calm Calm - N/A   Clear
3:54 PM 60.1 °F - 33.1 °F 36% 30.22 in 10.0 mi East 4.6 mph - N/A   Clear
4:54 PM 60.1 °F - 32.0 °F 35% 30.22 in 10.0 mi Calm Calm - N/A   Clear
5:54 PM 57.0 °F - 34.0 °F 42% 30.22 in 10.0 mi East 3.5 mph - N/A   Clear
6:54 PM 51.1 °F - 39.0 °F 63% 30.23 in 10.0 mi Calm Calm - N/A   Clear
7:54 PM 48.0 °F - 39.0 °F 71% 30.25 in 10.0 mi Calm Calm - N/A   Clear
8:54 PM 46.9 °F - 39.0 °F 74% 30.26 in 10.0 mi Calm Calm - N/A   Clear
9:54 PM 44.1 °F - 37.9 °F 79% 30.27 in 10.0 mi Calm Calm - N/A   Clear
10:54 PM 42.1 °F - 37.0 °F 82% 30.27 in 10.0 mi Calm Calm - N/A   Clear
11:54 PM 41.0 °F - 36.0 °F 82% 30.25 in 10.0 mi Calm Calm - N/A   Clear